Location: Namasale
(1.5000°N, 32.6167°E)
Time: 20:37:03
(UTC+00:00)

SR - Pass Details

Date: 18 April 2021
Orbit: 573 x 882 km, 66.7° (Epoch: 13 May)

Event Time Altitude Azimuth Distance (km) Brightness Sun altitude
Rises 17:06:51 0° 306° (NW) 3,203 ? -18.8°
Reaches altitude 10° 17:10:36 10° 280° (W) 2,204 ? -19.7°
Maximum altitude 17:12:52 13° 252° (WSW) 1,955 ? -20.3°
Drops below altitude 10° 17:15:05 10° 225° (SW) 2,114 ? -20.8°
Sets 17:18:33 0° 197° (SSW) 2,958 ? -21.7°
